{"data":{"norad_id":55762,"epoch":"2026-05-25T02:01:38.728128Z","epoch_age_seconds":81947,"freshness":"FRESH","line1":"1 55762U 23028X   26145.08447602  .00000145  00000+0  19907-4 0  9998","line2":"2 55762  69.9999  31.9485 0002797 268.6272  91.4567 14.98328933177979","mean_motion":14.98328933,"eccentricity":0.0002797,"inclination_deg":69.9999,"raan_deg":31.9485,"arg_perigee_deg":268.6272,"mean_anomaly_deg":91.4567,"bstar":1.9907e-5,"rev_number":17797,"period_min":96.107067566051,"perigee_km":570.11522068136,"apogee_km":574.00316043036,"semimajor_km":6950.1961905559,"source":"CELESTRAK","updated_at":"2026-05-25T13:38:17.881788Z"}}